Flag for Australia Weather past 2 weeks in Cobar, New South Wales, Australia

Now
50 °F

Cool.


Feels Like: 46 °F
Forecast: 48 / 71 °F
Wind: 8 mph from North

Location: Cobar

Current Time: Aug 1, 2015 at 2:23:46 AM

Latest Report: Aug 1, 2015 at 12:00 AM


Visibility: N/A

Pressure: 30.14 "Hg

Humidity: 61%

Dew point: 37 °F

Location of CobarLocation

Historic Weather in Cobar — Graph

°F

Cobar temperature yesterday

Maximum temperature yesterday: 65 °F (at 2:00 PM)
Minimum temperature yesterday: 46 °F (at 6:00 AM)
Average temperature yesterday: 54 °F

Past Weeks' High & Low Weather Summary

 TemperatureHumidityPressure
High65 °F (Jul 31, 2:00 PM)100% (Jul 23, 6:00 AM)30.63 "Hg (Jul 23, 6:00 AM)
Low34 °F (Jul 28, 5:00 AM)35% (Jul 30, 3:00 PM)30.02 "Hg (Jul 24, 2:00 PM)
Average49 °F73%30.30 "Hg
* Reported Midnight between Jul 16 and Jul 17 — Midnight between Jul 31 and Aug 1, Cobar, Weather by CustomWeather, © 2015

Note: Actual official high and low records may vary slightly from our data, if they occured in-between our weather recording intervals... More about our weather records

Advertising

Cobar weather history for previous 24 hours

 ConditionsComfort  
Time TempWeatherWind HumidityBarometerVisibility
12:00 AM
Sat, Aug 1
50 °FCool.8 mph61%30.14 "HgN/A
11:00 PM
Fri, Jul 31
50 °FCool.7 mph59%30.16 "HgN/A
9:00 PM54 °FCool.8 mph54%30.17 "HgN/A
8:00 PM55 °FCool.7 mph53%30.15 "HgN/A
6:00 PM58 °FRefreshingly cool.No wind50%30.13 "HgN/A
5:00 PM63 °FMild.6 mph43%30.12 "HgN/A
3:00 PM65 °FPassing clouds.6 mph40%30.13 "Hg31 mi
2:00 PM65 °FMild.5 mph40%30.14 "HgN/A
12:00 PM61 °FRefreshingly cool.3 mph43%30.21 "HgN/A
11:00 AM59 °FRefreshingly cool.5 mph45%30.22 "HgN/A
9:00 AM53 °FPassing clouds.7 mph47%30.21 "Hg31 mi
8:00 AM49 °FCool.6 mph52%30.20 "HgN/A
6:00 AM46 °FCool.6 mph59%30.16 "HgN/A
5:00 AM46 °FCool.6 mph61%30.14 "HgN/A
3:00 AM49 °FOvercast.6 mph56%30.16 "HgN/A
2:00 AM47 °FCool.7 mph58%30.17 "HgN/A
Weather by CustomWeather, © 2015

See weather overviewHow to use our weather pages